| time (UTC) | temp F | wind direction | speed MPH | gust MPH | rain 1hr in | rain 24hr in | rain mn in | humidity % | barometer mb |
| 20260509223039 | 64 | 214 | 9.0 | 20.0 | 0.00 | 1.30 | 0.02 | 78 | 1004.5 |
| 20260509220013 | 63 | 233 | 14.0 | 22.0 | 0.00 | 1.30 | 0.02 | 81 | 1004.1 |
| 20260509213022 | 60 | 241 | 7.0 | 16.0 | 0.00 | 1.30 | 0.02 | 91 | 1004.3 |
| 20260509210033 | 58 | 239 | 3.0 | 9.0 | 0.00 | 1.30 | 0.02 | 95 | 1004.1 |
| 20260509203021 | 56 | 250 | 4.0 | 8.0 | 0.00 | 1.30 | 0.02 | 96 | 1004.3 |
| 20260509200018 | 55 | 231 | 2.0 | 4.0 | 0.00 | 1.30 | 0.02 | 96 | 1003.9 |
| 20260509193053 | 54 | 285 | 0.0 | 3.0 | 0.08 | 1.30 | 0.02 | 95 | 1004.1 |
| 20260509190017 | 54 | 237 | 4.0 | 7.0 | 0.08 | 1.30 | 0.02 | 94 | 1003.9 |
| 20260509183034 | 54 | 214 | 5.0 | 10.0 | 0.00 | 1.22 | 0.01 | 95 | 1003.7 |
| 20260509180028 | 52 | 225 | 5.0 | 8.0 | 0.00 | 1.22 | 0.01 | 96 | 1003.2 |
| 20260509173042 | 52 | 235 | 3.0 | 8.0 | 0.00 | 1.22 | 0.01 | 96 | 1003.0 |
| 20260509170014 | 52 | 239 | 3.0 | 5.0 | 0.00 | 1.22 | 0.01 | 96 | 1002.8 |
| 20260509163025 | 52 | 225 | 3.0 | 6.0 | 0.00 | 1.22 | 0.01 | 96 | 1002.6 |
| 20260509160024 | 53 | 223 | 3.0 | 6.0 | 0.00 | 1.22 | 0.01 | 96 | 1002.8 |
| 20260509153021 | 53 | 239 | 3.0 | 4.0 | 0.00 | 1.22 | 0.01 | 96 | 1003.0 |
| 20260509150030 | 54 | 244 | 2.0 | 3.0 | 0.00 | 1.22 | 0.01 | 96 | 1003.3 |
| 20260509143024 | 55 | 239 | 2.0 | 4.0 | 0.00 | 1.22 | 0.01 | 96 | 1003.4 |
| 20260509140018 | 55 | 221 | 3.0 | 6.0 | 0.00 | 1.26 | 0.01 | 96 | 1003.3 |
| 20260509133013 | 56 | 208 | 4.0 | 6.0 | 0.04 | 1.26 | 0.01 | 96 | 1003.3 |
| 20260509130029 | 57 | 221 | 3.0 | 5.0 | 0.04 | 1.34 | 0.01 | 96 | 1003.3 |
| 20260509123022 | 57 | 235 | 4.0 | 12.0 | 0.20 | 1.30 | 0.00 | 96 | 1003.5 |
| 20260509120042 | 57 | 235 | 2.0 | 4.0 | 0.20 | 1.30 | 0.00 | 96 | 1003.8 |
| 20260509113012 | 57 | 250 | 6.0 | 16.0 | 0.00 | 1.54 | 0.22 | 96 | 1004.1 |
| 20260509110039 | 56 | 231 | 4.0 | 8.0 | 0.00 | 1.54 | 0.22 | 95 | 1003.8 |
| 20260509103035 | 56 | 254 | 4.0 | 8.0 | 0.00 | 1.54 | 0.22 | 94 | 1003.4 |
| 20260509100022 | 56 | 262 | 6.0 | 14.0 | 0.00 | 1.69 | 0.22 | 94 | 1003.7 |
| 20260509093044 | 57 | 264 | 2.0 | 7.0 | 0.00 | 1.69 | 0.22 | 94 | 1003.7 |
| 20260509090019 | 57 | 283 | 4.0 | 11.0 | 0.04 | 1.69 | 0.22 | 94 | 1003.9 |
| 20260509083019 | 58 | 292 | 4.0 | 11.0 | 0.24 | 1.69 | 0.22 | 94 | 1004.1 |
| 20260509080015 | 58 | 306 | 4.0 | 11.0 | 0.35 | 1.65 | 0.21 | 93 | 1004.1 |
| 20260509073016 | 59 | 266 | 8.0 | 15.0 | 0.24 | 1.46 | 0.17 | 93 | 1004.1 |
| 20260509070040 | 60 | 280 | 2.0 | 7.0 | 0.20 | 1.34 | 0.14 | 91 | 1003.5 |
| 20260509063042 | 62 | 229 | 5.0 | 10.0 | 0.12 | 1.26 | 0.13 | 89 | 1003.3 |
| 20260509060014 | 63 | 267 | 4.0 | 13.0 | 0.00 | 1.14 | 0.10 | 86 | 1003.2 |
| 20260509053035 | 64 | 292 | 4.0 | 13.0 | 0.00 | 1.14 | 0.10 | 84 | 1003.0 |
| 20260509050014 | 64 | 284 | 6.0 | 14.0 | 0.00 | 1.14 | 0.10 | 82 | 1003.1 |
| 20260509043037 | 65 | 252 | 3.0 | 7.0 | 0.00 | 1.14 | 0.10 | 80 | 1003.1 |
| 20260509040014 | 67 | 261 | 6.0 | 13.0 | 0.00 | 1.14 | 0.10 | 78 | 1003.4 |
| 20260509033015 | 67 | 304 | 8.0 | 15.0 | 0.00 | 1.14 | 0.10 | 77 | 1003.9 |
| 20260509030016 | 68 | 267 | 7.0 | 12.0 | 0.00 | 1.14 | 0.10 | 77 | 1003.9 |
| 20260509023022 | 69 | 251 | 8.0 | 12.0 | 0.00 | 1.14 | 0.10 | 73 | 1003.6 |
| 20260509020027 | 69 | 295 | 4.0 | 16.0 | 0.00 | 1.14 | 0.10 | 73 | 1003.6 |
| 20260509013028 | 69 | 312 | 6.0 | 16.0 | 0.00 | 1.14 | 0.10 | 75 | 1003.8 |
| 20260509010023 | 66 | 275 | 6.0 | 14.0 | 0.00 | 1.14 | 0.10 | 81 | 1004.3 |
| 20260509003019 | 68 | 260 | 5.0 | 17.0 | 0.00 | 1.14 | 0.10 | 78 | 1004.7 |
| 20260509000034 | 66 | 315 | 5.0 | 10.0 | 0.00 | 1.14 | 0.10 | 85 | 1005.4 |
| 20260508233023 | 64 | 265 | 3.0 | 6.0 | 0.39 | 1.14 | 0.10 | 92 | 1005.9 |
| 20260508230040 | 63 | 277 | 1.0 | 7.0 | 0.39 | 1.14 | 0.10 | 90 | 1006.2 |